{"data":{"norad_id":58353,"epoch":"2026-05-24T23:48:35.687808Z","epoch_age_seconds":72944,"freshness":"FRESH","line1":"1 58353U 23177C   26144.99207972  .00000437  00000+0  25398-4 0  9990","line2":"2 58353  43.0012 137.8869 0001100 269.8998  90.1727 15.27577069141507","mean_motion":15.27577069,"eccentricity":0.00011,"inclination_deg":43.0012,"raan_deg":137.8869,"arg_perigee_deg":269.8998,"mean_anomaly_deg":90.1727,"bstar":2.5398e-5,"rev_number":14150,"period_min":94.2669295856,"perigee_km":482.30314108613,"apogee_km":483.81260395809,"semimajor_km":6861.1948725221,"source":"CELESTRAK","updated_at":"2026-05-25T13:38:18.584521Z"}}